Location: Newark
(50.0306°N, 2.3272°E)
Time: 03:26:46
(UTC+00:00)

A-11 Canister half - Pass Details

Date: 16 December 2019
Orbit: 1525 x 1684 km, 47.3° (Epoch: 19 January)

Event Time Altitude Azimuth Distance (km) Brightness Sun altitude
Rises 09:03:02 0° 282° (WNW) 4,941 11.2 8.3°
Reaches altitude 10° 09:06:15 10° 279° (W) 3,952 10.8 8.6°
Maximum altitude 09:16:12 62° 203° (SSW) 1,843 9.9 9.5°
Drops below altitude 10° 09:25:56 10° 126° (SE) 3,876 12.7 10.4°
Sets 09:29:04 0° 123° (ESE) 4,842 12.9 10.6°
